Flag for Canada Weather past 2 weeks in Dryden, Ontario, Canada

Now
32 °F

Snow. Mostly cloudy.


Feels Like: 27 °F
Forecast: 30 / 35 °F
Wind: 5 mph from Northeast

Location: Dryden Airport

Current Time: Dec 22, 2014 at 6:33:47 PM

Latest Report: Dec 22, 2014 at 6:00 PM


Visibility: 0 mi

Pressure: 29.80 "Hg

Humidity: 100%

Dew point: 32 °F

Location of DrydenLocation

Historic Weather in Dryden — Graph

°F

Dryden temperature yesterday

Maximum temperature yesterday: 30 °F (at 6:00 PM)
Minimum temperature yesterday: 27 °F (at 3:58 AM)
Average temperature yesterday: 28 °F

Past Weeks' High & Low Weather Summary

 TemperatureHumidityPressure
High34 °F (Dec 22, 10:57 AM)100% (Dec 7, 10:00 PM)30.57 "Hg (Dec 7, 10:00 PM)
Low-8 °F (Dec 18, 1:00 AM)62% (Dec 17, 2:00 PM)29.74 "Hg (Dec 22, 2:00 AM)
Average22 °F95%30.11 "Hg
* Reported Dec 7 5:00 PM — Dec 22 5:02 PM, Dryden, Weather by CustomWeather, © 2014

Note: Actual official high and low records may vary slightly from our data, if they occured in-between our weather recording intervals... More about our weather records

Advertising

Dryden weather history for previous 24 hours

 ConditionsComfort  
Time TempWeatherWind HumidityBarometerVisibility
5:02 PM
Dec 22
34 °FLight snow. Mostly cloudy.3 mph93%29.79 "Hg8 mi
4:04 PM34 °FLight snow. Low clouds.3 mph100%29.77 "Hg9 mi
3:59 PM34 °FLight mixture of precip. Low clouds.3 mph100%29.77 "Hg9 mi
3:02 PM34 °FLight rain. Low clouds.3 mph100%29.75 "Hg9 mi
3:00 PM34 °FLight rain. Low clouds.3 mph100%29.75 "Hg9 mi
2:03 PM34 °FLight rain. Low clouds.5 mph100%29.74 "Hg9 mi
1:00 PM34 °FLight rain. Low clouds.7 mph93%29.74 "Hg9 mi
12:00 PM34 °FLight rain. Low clouds.7 mph93%29.74 "Hg9 mi
11:48 AM34 °FLight rain. Low clouds.6 mph93%29.74 "Hg9 mi
11:00 AM34 °FLight mixture of precip. Low clouds.9 mph93%29.75 "Hg7 mi
10:57 AM34 °FLight rain. Low clouds.7 mph93%29.75 "Hg8 mi
10:04 AM32 °FIce fog.7 mph100%29.76 "Hg3 mi
9:02 AM32 °FIce fog.6 mph100%29.74 "Hg1 mi
8:02 AM32 °FIce fog.7 mph100%29.74 "Hg2 mi
7:00 AM32 °FMostly cloudy.7 mph100%29.74 "Hg9 mi
6:00 AM32 °FOvercast.5 mph93%29.74 "Hg9 mi
5:00 AM32 °FLow clouds.7 mph93%29.74 "Hg9 mi
4:00 AM32 °FLow clouds.6 mph93%29.74 "Hg9 mi
3:00 AM32 °FOvercast.6 mph93%29.74 "Hg9 mi
2:00 AM30 °FIce fog.6 mph100%29.74 "Hg6 mi
1:00 AM30 °FIce fog.8 mph100%29.74 "Hg4 mi
12:00 AM30 °FLow clouds.8 mph100%29.74 "Hg7 mi
11:00 PM
Dec 21
30 °FLow clouds.7 mph100%29.75 "Hg7 mi
10:00 PM30 °FLow clouds.7 mph100%29.74 "Hg7 mi
9:00 PM30 °FIce fog.8 mph100%29.75 "Hg4 mi
8:00 PM30 °FIce fog.8 mph100%29.76 "Hg3 mi
7:00 PM30 °FIce fog.8 mph93%29.76 "Hg3 mi
6:00 PM30 °FIce fog.9 mph93%29.77 "Hg2 mi
Weather by CustomWeather, © 2014

See weather overviewHow to use our weather pages